Weather Station Data

Station Data Captured at Five Minute Intervals Since Midnight Local Time


Date Time Temp. RH % Dew Pt. Wind Speed Wind Dir. Peak Wind Wind Chill Pressure Precip. Solar W/m2 ET
12/01/22 4:45a 24.6 73 17.2 1.0 WSW 2.0 24.6 30.486 0.00 0 0.000
12/01/22 4:40a 24.8 72 17.1 0.0 WSW 1.0 24.8 30.487 0.00 0 0.000
12/01/22 4:35a 24.9 72 17.1 1.0 WSW 2.0 24.9 30.489 0.00 0 0.000
12/01/22 4:30a 24.9 72 17.1 1.0 WSW 2.0 24.9 30.487 0.00 0 0.000
12/01/22 4:25a 24.9 72 17.1 0.0 WSW 2.0 24.9 30.488 0.00 0 0.000
12/01/22 4:20a 24.9 72 17.1 1.0 WSW 2.0 24.9 30.488 0.00 0 0.000
12/01/22 4:15a 25.0 72 17.2 1.0 WSW 3.0 25.0 30.492 0.00 0 0.000
12/01/22 4:10a 25.0 71 16.9 1.0 WSW 2.0 25.0 30.493 0.00 0 0.000
12/01/22 4:05a 25.0 71 16.9 1.0 WSW 3.0 25.0 30.493 0.00 0 0.000
12/01/22 4:00a 25.1 71 17.0 1.0 WSW 3.0 25.1 30.489 0.00 0 0.001
12/01/22 3:55a 25.3 70 16.9 1.0 WSW 2.0 25.3 30.487 0.00 0 0.000
12/01/22 3:50a 25.4 70 17.0 1.0 WSW 2.0 25.4 30.484 0.00 0 0.000
12/01/22 3:45a 25.6 70 17.2 0.0 WSW 1.0 25.6 30.480 0.00 0 0.000
12/01/22 3:40a 25.7 70 17.3 1.0 WSW 3.0 25.7 30.479 0.00 0 0.000
12/01/22 3:35a 25.7 69 16.9 1.0 WSW 3.0 25.7 30.475 0.00 0 0.000
12/01/22 3:30a 25.8 69 17.0 1.0 WSW 4.0 25.8 30.471 0.00 0 0.000
12/01/22 3:25a 25.9 69 17.1 1.0 WSW 3.0 25.9 30.468 0.00 0 0.000
12/01/22 3:20a 26.0 69 17.2 1.0 WSW 3.0 26.0 30.470 0.00 0 0.000
12/01/22 3:15a 26.1 69 17.3 2.0 WSW 5.0 24.5 30.466 0.00 0 0.000
12/01/22 3:10a 26.1 69 17.3 2.0 W 3.0 24.5 30.464 0.00 0 0.000
12/01/22 3:05a 26.1 69 17.3 2.0 W 3.0 24.5 30.461 0.00 0 0.000
12/01/22 3:00a 26.2 69 17.4 2.0 W 4.0 24.6 30.459 0.00 0 0.001
12/01/22 2:55a 26.3 69 17.5 2.0 W 4.0 24.7 30.456 0.00 0 0.000
12/01/22 2:50a 26.3 69 17.5 2.0 W 6.0 24.7 30.455 0.00 0 0.000
12/01/22 2:45a 26.3 69 17.5 2.0 WSW 5.0 24.7 30.454 0.00 0 0.000
12/01/22 2:40a 26.4 69 17.6 2.0 W 4.0 24.8 30.450 0.00 0 0.000
12/01/22 2:35a 26.5 68 17.4 2.0 W 7.0 24.9 30.450 0.00 0 0.000
12/01/22 2:30a 26.5 69 17.7 3.0 WSW 7.0 23.1 30.449 0.00 0 0.000
12/01/22 2:25a 26.6 69 17.8 3.0 WSW 6.0 23.2 30.448 0.00 0 0.000
12/01/22 2:20a 26.6 68 17.5 2.0 WSW 5.0 25.0 30.444 0.00 0 0.000
12/01/22 2:15a 26.7 68 17.6 3.0 W 6.0 23.3 30.441 0.00 0 0.000
12/01/22 2:10a 26.7 68 17.6 3.0 W 6.0 23.3 30.436 0.00 0 0.000
12/01/22 2:05a 26.8 68 17.6 3.0 WSW 6.0 23.4 30.432 0.00 0 0.000
12/01/22 2:00a 26.9 68 17.7 3.0 WSW 13.0 23.5 30.430 0.00 0 0.001
12/01/22 1:55a 26.8 69 18.0 3.0 WSW 13.0 23.4 30.429 0.00 0 0.000
12/01/22 1:50a 26.9 68 17.7 3.0 WSW 6.0 23.5 30.425 0.00 0 0.000
12/01/22 1:45a 27.0 68 17.8 3.0 SW 6.0 23.7 30.422 0.00 0 0.000
12/01/22 1:40a 27.0 68 17.8 3.0 W 7.0 23.7 30.420 0.00 0 0.000
12/01/22 1:35a 27.1 68 17.9 3.0 WSW 6.0 23.8 30.420 0.00 0 0.000
12/01/22 1:30a 27.1 68 17.9 3.0 WSW 6.0 23.8 30.420 0.00 0 0.000
12/01/22 1:25a 27.2 68 18.0 3.0 W 7.0 23.9 30.420 0.00 0 0.000
12/01/22 1:20a 27.3 68 18.1 3.0 W 6.0 24.0 30.419 0.00 0 0.000
12/01/22 1:15a 27.4 68 18.2 3.0 WSW 7.0 24.1 30.416 0.00 0 0.000
12/01/22 1:10a 27.4 68 18.2 2.0 W 6.0 25.9 30.413 0.00 0 0.000
12/01/22 1:05a 27.5 68 18.3 3.0 WSW 6.0 24.2 30.411 0.00 0 0.000
12/01/22 1:00a 27.6 68 18.4 3.0 WSW 8.0 24.3 30.408 0.00 0 0.001
12/01/22 12:55a 27.7 68 18.5 3.0 WSW 6.0 24.5 30.408 0.00 0 0.000
12/01/22 12:50a 27.8 67 18.3 4.0 W 8.0 23.2 30.405 0.00 0 0.000
12/01/22 12:45a 27.8 67 18.3 4.0 W 9.0 23.2 30.405 0.00 0 0.000
12/01/22 12:40a 27.8 67 18.3 4.0 W 8.0 23.2 30.398 0.00 0 0.000
12/01/22 12:35a 27.9 67 18.4 4.0 WSW 11.0 23.3 30.396 0.00 0 0.000
12/01/22 12:30a 27.9 67 18.4 3.0 W 6.0 24.7 30.396 0.00 0 0.000
12/01/22 12:25a 28.0 67 18.5 4.0 WSW 8.0 23.5 30.397 0.00 0 0.000
12/01/22 12:20a 28.1 67 18.5 4.0 W 8.0 23.6 30.393 0.00 0 0.000
12/01/22 12:15a 28.1 67 18.5 4.0 W 10.0 23.6 30.389 0.00 0 0.000
12/01/22 12:10a 28.3 67 18.7 4.0 WSW 11.0 23.8 30.388 0.00 0 0.000
12/01/22 12:05a 28.3 67 18.7 4.0 W 8.0 23.8 30.390 0.00 0 0.000
12/01/22 12:00a 28.3 67 18.7 4.0 WSW 10.0 23.8 30.389 0.00 0 0.001

15,099 Page Views